{"data":{"norad_id":53712,"intl_designator":"2022-107N","name":"STARLINK-4683","alt_names":[],"object_type":"PAYLOAD","status":"ACTIVE","operator":null,"country":"US","launch_date":"2022-09-05","launch_site_code":"AFETR","launch_vehicle":null,"mission":null,"orbit_class":"UNKNOWN","rcs_meters":null,"size_class":null,"mass_kg":null,"dimensions":null,"purposes":["comms"],"wikipedia_slug":null,"has_3d_model":false,"image_url":null,"decayed_at":null,"tle_current":{"epoch":"2026-05-24T18:05:13.728768Z","epoch_age_seconds":107056,"freshness":"FRESH","line1":"1 53712U 22107N   26144.75363112 -.00000195  00000+0  58372-5 0  9990","line2":"2 53712  53.2156 267.2021 0001321  90.4286 269.6858 15.08838169205985","mean_motion":15.08838169,"eccentricity":0.0001321,"inclination_deg":53.2156,"raan_deg":267.2021,"arg_perigee_deg":90.4286,"mean_anomaly_deg":269.6858,"bstar":5.8372e-6,"rev_number":20598,"period_min":95.437670492812,"perigee_km":538.83513286556,"apogee_km":540.66283834296,"semimajor_km":6917.8859856043,"source":"CELESTRAK","updated_at":"2026-05-25T13:38:17.533978Z"}}}